Location: LewisvilleTX
(33.0462°N, 96.9942°W)
Time: 18:07:29
(UTC+00:00)

Envisat - Pass Details

Date: 12 September 2019
Orbit: 764 x 766 km, 98.1° (Epoch: 23 September)

Event Time Altitude Azimuth Distance (km) Brightness Sun altitude
Rises 00:54:36 0° 172° (S) 3,216 6.1 -3.9°
Reaches altitude 10° 00:56:54 10° 175° (S) 2,293 5.3 -4.4°
Maximum altitude 01:01:56 70° 259° (WSW) 816 3.4 -5.4°
Drops below altitude 10° 01:07:00 10° 342° (NNW) 2,306 5.9 -6.5°
Sets 01:09:20 0° 345° (NNW) 3,235 6.6 -7.0°
